NOZ1EL ENGM-ENML

Flight info

Callsign NOZ1EL
Flight time 0h 44m
Altitude 30000
Route EVTOG DCT PIGED DCT VEPUL
Aircraft B738/M-SADE3GHIJ1LRWXY/LB1

Departure

Time 2026-05-04 13:08
Airport Oslo-Gardermoen International Airport (ENGM)

Arrival

Time 2026-05-04 13:53
Airport Molde Airport, Årø (ENML)
Time Latitude Longitude Altitude Speed Heading
2026-05-04 12:06 60.19553 11.09907 684 ft 0 kts 106°
2026-05-04 12:59 60.19554 11.09898 684 ft 4 kts 106°
2026-05-04 13:00 60.19562 11.09846 684 ft 4 kts 106°
2026-05-04 13:00 60.19569 11.09796 679 ft 3 kts 106°
2026-05-04 13:00 60.19570 11.09791 680 ft 1 kts 106°
2026-05-04 13:02 60.19573 11.09798 679 ft 1 kts 55°
2026-05-04 13:03 60.19587 11.09788 682 ft 5 kts 330°
2026-05-04 13:03 60.19626 11.09713 680 ft 11 kts 314°
2026-05-04 13:03 60.19659 11.09557 681 ft 13 kts 286°
2026-05-04 13:03 60.19683 11.09386 680 ft 13 kts 286°
2026-05-04 13:04 60.19710 11.09201 680 ft 14 kts 286°
2026-05-04 13:04 60.19737 11.09011 682 ft 14 kts 286°
2026-05-04 13:04 60.19764 11.08818 676 ft 16 kts 286°
2026-05-04 13:04 60.19812 11.08695 678 ft 12 kts
2026-05-04 13:05 60.19894 11.08741 678 ft 14 kts 16°
2026-05-04 13:05 60.20003 11.08803 679 ft 18 kts 16°
2026-05-04 13:05 60.20133 11.08878 680 ft 20 kts 16°
2026-05-04 13:05 60.20262 11.08953 680 ft 19 kts 16°
2026-05-04 13:06 60.20389 11.09026 681 ft 19 kts 16°
2026-05-04 13:06 60.20511 11.09096 681 ft 18 kts 16°
2026-05-04 13:06 60.20606 11.09146 681 ft 11 kts 359°
2026-05-04 13:06 60.20650 11.09031 678 ft 11 kts 290°
2026-05-04 13:07 60.20672 11.08883 678 ft 12 kts 286°
2026-05-04 13:07 60.20694 11.08728 678 ft 11 kts 286°
2026-05-04 13:07 60.20702 11.08656 678 ft 2 kts 257°
2026-05-04 13:07 60.20676 11.08628 677 ft 10 kts 194°
2026-05-04 13:08 60.20430 11.08487 677 ft 73 kts 196°
2026-05-04 13:08 60.19716 11.08075 673 ft 138 kts 196°
2026-05-04 13:08 60.18659 11.07492 939 ft 167 kts 200°
2026-05-04 13:08 60.17548 11.06751 1748 ft 169 kts 205°
2026-05-04 13:09 60.16459 11.05665 2165 ft 186 kts 230°
2026-05-04 13:09 60.15845 11.03306 2416 ft 202 kts 251°
2026-05-04 13:09 60.15294 11.00548 2696 ft 226 kts 249°
2026-05-04 13:09 60.14642 10.97559 3132 ft 238 kts 248°
2026-05-04 13:10 60.14264 10.94369 3874 ft 241 kts 275°
2026-05-04 13:10 60.14850 10.91220 4740 ft 245 kts 301°
2026-05-04 13:10 60.15998 10.88688 5590 ft 251 kts 317°
2026-05-04 13:10 60.17410 10.86549 6404 ft 255 kts 321°
2026-05-04 13:11 60.18858 10.84533 7197 ft 257 kts 321°
2026-05-04 13:11 60.20349 10.82485 7974 ft 261 kts 321°
2026-05-04 13:11 60.21860 10.80399 8782 ft 264 kts 321°
2026-05-04 13:11 60.23375 10.78293 9584 ft 267 kts 320°
2026-05-04 13:12 60.24921 10.76125 10145 ft 278 kts 320°
2026-05-04 13:12 60.26573 10.73784 10326 ft 301 kts 320°
2026-05-04 13:12 60.28354 10.71251 10593 ft 320 kts 320°
2026-05-04 13:12 60.30170 10.68670 11171 ft 326 kts 320°
2026-05-04 13:13 60.32034 10.66021 11959 ft 328 kts 320°
2026-05-04 13:13 60.33907 10.63351 12731 ft 333 kts 320°
2026-05-04 13:13 60.35818 10.60617 13445 ft 338 kts 320°
2026-05-04 13:13 60.37747 10.57853 14231 ft 339 kts 320°
2026-05-04 13:14 60.39671 10.55093 15154 ft 337 kts 319°
2026-05-04 13:14 60.41581 10.52350 16068 ft 335 kts 317°
2026-05-04 13:14 60.43460 10.49642 16917 ft 335 kts 316°
2026-05-04 13:14 60.45364 10.46892 17768 ft 336 kts 316°
2026-05-04 13:15 60.47268 10.44138 18504 ft 336 kts 315°
2026-05-04 13:15 60.49160 10.41393 19088 ft 340 kts 315°
2026-05-04 13:15 60.51100 10.38573 19629 ft 345 kts 315°
2026-05-04 13:15 60.53064 10.35715 20202 ft 348 kts 315°
2026-05-04 13:16 60.55047 10.32827 20805 ft 351 kts 314°
2026-05-04 13:16 60.57040 10.29920 21384 ft 355 kts 314°
2026-05-04 13:16 60.59059 10.26975 21974 ft 358 kts 314°
2026-05-04 13:16 60.61095 10.23999 22507 ft 362 kts 314°
2026-05-04 13:17 60.63149 10.20989 23043 ft 365 kts 314°
2026-05-04 13:17 60.65216 10.17961 23597 ft 366 kts 314°
2026-05-04 13:17 60.67263 10.14957 24102 ft 369 kts 314°
2026-05-04 13:17 60.69358 10.11876 24550 ft 370 kts 314°
2026-05-04 13:18 60.71437 10.08818 25211 ft 366 kts 314°
2026-05-04 13:18 60.73497 10.05788 25923 ft 361 kts 314°
2026-05-04 13:18 60.75527 10.02790 26535 ft 358 kts 314°
2026-05-04 13:18 60.77541 9.99805 27097 ft 357 kts 314°
2026-05-04 13:19 60.79549 9.96825 27696 ft 355 kts 314°
2026-05-04 13:19 60.81552 9.93894 28317 ft 354 kts 316°
2026-05-04 13:19 60.83697 9.91335 28902 ft 358 kts 321°
2026-05-04 13:19 60.85900 9.88940 29459 ft 358 kts 321°
2026-05-04 13:20 60.88084 9.86593 29703 ft 362 kts 322°
2026-05-04 13:20 60.92562 9.81774 29697 ft 359 kts 321°
2026-05-04 13:21 60.96933 9.77038 29709 ft 356 kts 321°
2026-05-04 13:21 60.99123 9.74642 29818 ft 357 kts 321°
2026-05-04 13:21 61.01345 9.72194 29767 ft 366 kts 322°
2026-05-04 13:22 61.05915 9.67151 29719 ft 373 kts 323°
2026-05-04 13:22 61.10475 9.62130 29709 ft 373 kts 323°
2026-05-04 13:23 61.15058 9.57065 29721 ft 372 kts 323°
2026-05-04 13:23 61.19611 9.52010 29718 ft 370 kts 323°
2026-05-04 13:24 61.24120 9.46990 29722 ft 368 kts 323°
2026-05-04 13:24 61.28703 9.42348 29705 ft 358 kts 325°
2026-05-04 13:25 61.33137 9.38043 29246 ft 343 kts 324°
2026-05-04 13:25 61.35263 9.35954 28916 ft 339 kts 324°
2026-05-04 13:25 61.37390 9.33848 28557 ft 334 kts 324°
2026-05-04 13:25 61.39480 9.31766 28227 ft 330 kts 324°
2026-05-04 13:26 61.41535 9.29710 27890 ft 325 kts 323°
2026-05-04 13:26 61.43542 9.27695 27558 ft 322 kts 323°
2026-05-04 13:26 61.45554 9.25671 27227 ft 318 kts 323°
2026-05-04 13:26 61.47539 9.23670 26900 ft 314 kts 323°
2026-05-04 13:27 61.49505 9.21684 26551 ft 311 kts 323°
2026-05-04 13:27 61.51446 9.19722 26249 ft 308 kts 322°
2026-05-04 13:27 61.53343 9.17801 25960 ft 305 kts 322°
2026-05-04 13:27 61.55202 9.15915 25642 ft 302 kts 322°
2026-05-04 13:28 61.57092 9.13996 25340 ft 298 kts 322°
2026-05-04 13:28 61.58949 9.12107 25018 ft 296 kts 322°
2026-05-04 13:28 61.60774 9.10249 24717 ft 293 kts 321°
2026-05-04 13:28 61.62603 9.08384 24497 ft 291 kts 322°
2026-05-04 13:29 61.64430 9.06513 24145 ft 292 kts 322°
2026-05-04 13:29 61.66269 9.04626 23826 ft 293 kts 322°
2026-05-04 13:29 61.68097 9.02746 23504 ft 298 kts 322°
2026-05-04 13:29 61.69990 9.00793 23175 ft 304 kts 322°
2026-05-04 13:30 61.71902 8.98824 22789 ft 305 kts 322°
2026-05-04 13:30 61.73799 8.96882 22465 ft 300 kts 323°
2026-05-04 13:30 61.75648 8.94989 22161 ft 297 kts 322°
2026-05-04 13:30 61.77493 8.93097 21847 ft 292 kts 322°
2026-05-04 13:31 61.79305 8.91235 21540 ft 286 kts 322°
2026-05-04 13:31 61.81070 8.89422 21255 ft 280 kts 322°
2026-05-04 13:31 61.82823 8.87608 20952 ft 279 kts 322°
2026-05-04 13:31 61.84541 8.85825 20681 ft 278 kts 322°
2026-05-04 13:32 61.86295 8.83994 20393 ft 285 kts 322°
2026-05-04 13:32 61.88109 8.82089 20083 ft 295 kts 323°
2026-05-04 13:32 61.89952 8.80163 19752 ft 296 kts 323°
2026-05-04 13:32 61.91799 8.78244 19425 ft 294 kts 323°
2026-05-04 13:33 61.93633 8.76338 19094 ft 291 kts 323°
2026-05-04 13:33 61.95425 8.74475 18857 ft 288 kts 324°
2026-05-04 13:33 61.97224 8.72598 18529 ft 287 kts 324°
2026-05-04 13:33 61.99016 8.70723 18214 ft 286 kts 324°
2026-05-04 13:34 62.00800 8.68855 17888 ft 283 kts 324°
2026-05-04 13:34 62.02545 8.67025 17564 ft 281 kts 324°
2026-05-04 13:34 62.04284 8.65201 17291 ft 277 kts 324°
2026-05-04 13:34 62.05436 8.63989 17092 ft 276 kts 324°
2026-05-04 13:35 62.07709 8.61597 16714 ft 272 kts 324°
2026-05-04 13:35 62.10535 8.58614 16231 ft 268 kts 324°
2026-05-04 13:35 62.12178 8.56877 15945 ft 265 kts 324°
2026-05-04 13:36 62.13831 8.55128 15665 ft 264 kts 324°
2026-05-04 13:36 62.15483 8.53373 15372 ft 265 kts 324°
2026-05-04 13:36 62.17147 8.51601 15126 ft 270 kts 324°
2026-05-04 13:36 62.18856 8.49774 14826 ft 277 kts 324°
2026-05-04 13:37 62.20590 8.47925 14531 ft 277 kts 325°
2026-05-04 13:37 62.22298 8.46110 14233 ft 276 kts 325°
2026-05-04 13:37 62.24015 8.44283 13952 ft 274 kts 325°
2026-05-04 13:37 62.25721 8.42465 13647 ft 273 kts 325°
2026-05-04 13:38 62.27419 8.40653 13386 ft 270 kts 326°
2026-05-04 13:38 62.29101 8.38851 13038 ft 269 kts 327°
2026-05-04 13:38 62.30755 8.37078 12735 ft 269 kts 328°
2026-05-04 13:38 62.32422 8.35288 12434 ft 266 kts 328°
2026-05-04 13:39 62.34045 8.33548 12213 ft 255 kts 328°
2026-05-04 13:39 62.35633 8.31844 11935 ft 257 kts 328°
2026-05-04 13:39 62.37247 8.30100 11628 ft 261 kts 328°
2026-05-04 13:39 62.38880 8.28333 11366 ft 269 kts 328°
2026-05-04 13:40 62.40552 8.26524 11089 ft 272 kts 328°
2026-05-04 13:40 62.42258 8.24678 10747 ft 276 kts 328°
2026-05-04 13:40 62.43980 8.22815 10463 ft 277 kts 329°
2026-05-04 13:40 62.45699 8.20953 10156 ft 274 kts 329°
2026-05-04 13:41 62.47390 8.19124 9893 ft 270 kts 329°
2026-05-04 13:41 62.49066 8.17302 9603 ft 269 kts 329°
2026-05-04 13:41 62.50719 8.15503 9271 ft 268 kts 329°
2026-05-04 13:42 62.54008 8.11916 8727 ft 261 kts 329°
2026-05-04 13:42 62.55634 8.10143 8448 ft 261 kts 329°
2026-05-04 13:42 62.57274 8.08350 8205 ft 262 kts 329°
2026-05-04 13:42 62.58876 8.06597 8073 ft 264 kts 329°
2026-05-04 13:43 62.60531 8.04780 7786 ft 267 kts 328°
2026-05-04 13:43 62.62186 8.02966 7540 ft 266 kts 328°
2026-05-04 13:43 62.63847 8.01140 7223 ft 266 kts 327°
2026-05-04 13:43 62.65482 7.99342 6998 ft 259 kts 328°
2026-05-04 13:44 62.67090 7.97571 6748 ft 258 kts 327°
2026-05-04 13:44 62.68662 7.95841 6616 ft 248 kts 328°
2026-05-04 13:44 62.70166 7.94182 6558 ft 242 kts 328°
2026-05-04 13:44 62.71643 7.92550 6456 ft 232 kts 327°
2026-05-04 13:45 62.73053 7.90994 6344 ft 221 kts 327°
2026-05-04 13:45 62.74363 7.89408 6235 ft 209 kts 320°
2026-05-04 13:45 62.75542 7.87637 6063 ft 203 kts 318°
2026-05-04 13:45 62.76695 7.85871 5846 ft 203 kts 319°
2026-05-04 13:46 62.77832 7.84144 5661 ft 195 kts 319°
2026-05-04 13:46 62.78932 7.82480 5410 ft 189 kts 319°
2026-05-04 13:46 62.79944 7.80756 5189 ft 179 kts 304°
2026-05-04 13:46 62.80350 7.78368 4995 ft 164 kts 273°
2026-05-04 13:47 62.80231 7.75917 4805 ft 160 kts 259°
2026-05-04 13:47 62.80004 7.73614 4587 ft 154 kts 259°
2026-05-04 13:47 62.79769 7.71357 4400 ft 151 kts 258°
2026-05-04 13:47 62.79530 7.69154 4240 ft 147 kts 258°
2026-05-04 13:48 62.79290 7.66987 4051 ft 147 kts 258°
2026-05-04 13:48 62.79045 7.64805 3845 ft 147 kts 258°
2026-05-04 13:48 62.78799 7.62627 3622 ft 148 kts 257°
2026-05-04 13:48 62.78553 7.60465 3404 ft 148 kts 257°
2026-05-04 13:49 62.78303 7.58269 3161 ft 149 kts 257°
2026-05-04 13:49 62.78054 7.56088 2927 ft 147 kts 257°
2026-05-04 13:49 62.77808 7.53927 2703 ft 145 kts 257°
2026-05-04 13:49 62.77568 7.51822 2482 ft 141 kts 257°
2026-05-04 13:50 62.77333 7.49770 2307 ft 138 kts 257°
2026-05-04 13:50 62.77100 7.47729 2089 ft 137 kts 257°
2026-05-04 13:50 62.76872 7.45731 1871 ft 134 kts 257°
2026-05-04 13:50 62.76657 7.43843 1715 ft 127 kts 257°
2026-05-04 13:51 62.76444 7.41977 1497 ft 126 kts 258°
2026-05-04 13:51 62.76238 7.40117 1289 ft 126 kts 257°
2026-05-04 13:51 62.76022 7.38254 1111 ft 125 kts 257°
2026-05-04 13:51 62.75816 7.36459 895 ft 121 kts 257°
2026-05-04 13:52 62.75423 7.32837 471 ft 131 kts 256°
2026-05-04 13:52 62.75197 7.30870 299 ft 131 kts 253°
2026-05-04 13:52 62.74920 7.29037 95 ft 125 kts 250°
2026-05-04 13:53 62.74650 7.27339 18 ft 98 kts 251°
2026-05-04 13:53 62.74497 7.26372 19 ft 43 kts 251°
2026-05-04 13:53 62.74440 7.26004 20 ft 14 kts 251°
2026-05-04 13:54 62.74430 7.25900 17 ft 2 kts 286°
2026-05-04 13:54 62.74448 7.25857 18 ft 5 kts 329°
2026-05-04 13:54 62.74507 7.25839 21 ft 4 kts 43°
2026-05-04 13:55 62.74524 7.25928 22 ft 8 kts 70°
2026-05-04 13:55 62.74552 7.26072 23 ft 2 kts 32°
2026-05-04 13:55 62.74567 7.26075 22 ft 2 kts 359°
2026-05-04 13:56 62.74583 7.26067 22 ft 2 kts 345°
2026-05-04 13:56 62.74592 7.26061 22 ft 1 kts 342°
2026-05-04 13:56 62.74593 7.26060 22 ft 0 kts 342°